Location: Unspecified
(49.9820°N, 20.4363°E)
Time: 21:58:29
(UTC+01:00)

ISS - Pass Details

Date: 09 November 2018
Orbit: 401 x 408 km, 51.6° (Epoch: 10 December)

Event Time Altitude Azimuth Distance (km) Brightness Sun altitude
Exits shadow 05:11:14 32° 279° (W) 728 -3.1 -14.5°
Maximum altitude 05:12:36 73° 201° (SSW) 428 -3.8 -14.3°
Drops below altitude 10° 05:15:53 10° 116° (ESE) 1,467 0.3 -13.8°
Sets 05:17:58 0° 115° (ESE) 2,327 1.7 -13.5°
